Year,Month,Day,Hour,Minute,Value (Times are PST for temperature in C)
2009,06,04,00,00,19.10
2009,06,04,00,01,19.10
2009,06,04,00,02,19.20
2009,06,04,00,03,19.20
2009,06,04,00,04,19.20
2009,06,04,00,05,19.20
2009,06,04,00,06,19.30
2009,06,04,00,07,19.30
2009,06,04,00,08,19.40
2009,06,04,00,09,19.40
2009,06,04,00,10,19.50
2009,06,04,00,11,19.60
2009,06,04,00,12,19.60
2009,06,04,00,13,19.70
2009,06,04,00,14,19.80
2009,06,04,00,15,19.80
2009,06,04,00,16,19.90
2009,06,04,00,17,19.90
2009,06,04,00,18,20.00
2009,06,04,00,19,20.10
2009,06,04,00,20,20.10
2009,06,04,00,21,20.00
2009,06,04,00,22,20.00
2009,06,04,00,23,19.90
2009,06,04,00,24,19.90
2009,06,04,00,25,19.80
2009,06,04,00,26,19.70
2009,06,04,00,27,19.60
2009,06,04,00,28,19.50
2009,06,04,00,29,19.30
2009,06,04,00,30,19.20
2009,06,04,00,31,19.10
2009,06,04,00,32,18.90
2009,06,04,00,33,18.80
2009,06,04,00,34,18.70
2009,06,04,00,35,18.60
2009,06,04,00,36,18.50
2009,06,04,00,37,18.40
2009,06,04,00,38,18.30
2009,06,04,00,39,18.10
2009,06,04,00,40,18.00
2009,06,04,00,41,17.90
2009,06,04,00,42,17.80
2009,06,04,00,43,17.70
2009,06,04,00,44,17.60
2009,06,04,00,45,17.60
2009,06,04,00,46,17.50
2009,06,04,00,47,17.40
2009,06,04,00,48,17.40
2009,06,04,00,49,17.40
2009,06,04,00,50,17.30
2009,06,04,00,51,17.30
2009,06,04,00,52,17.30
2009,06,04,00,53,17.30
2009,06,04,00,54,17.30
2009,06,04,00,55,17.30
2009,06,04,00,56,17.20
2009,06,04,00,57,17.20
2009,06,04,00,58,17.20
2009,06,04,00,59,17.20
2009,06,04,01,00,17.20
2009,06,04,01,01,17.20
2009,06,04,01,02,17.20
2009,06,04,01,03,17.30
2009,06,04,01,04,17.30
2009,06,04,01,05,17.40
2009,06,04,01,06,17.40
2009,06,04,01,07,17.50
2009,06,04,01,08,17.60
2009,06,04,01,09,17.60
2009,06,04,01,10,17.70
2009,06,04,01,11,17.70
2009,06,04,01,12,17.70
2009,06,04,01,13,17.80
2009,06,04,01,14,17.80
2009,06,04,01,15,17.80
2009,06,04,01,16,17.80
2009,06,04,01,17,17.90
2009,06,04,01,18,17.90
2009,06,04,01,19,17.90
2009,06,04,01,20,18.00
2009,06,04,01,21,18.00
2009,06,04,01,22,18.10
2009,06,04,01,23,18.10
2009,06,04,01,24,18.10
2009,06,04,01,25,18.10
2009,06,04,01,26,18.20
2009,06,04,01,27,18.20
2009,06,04,01,28,18.30
2009,06,04,01,29,18.30
2009,06,04,01,30,18.30
2009,06,04,01,31,18.40
2009,06,04,01,32,18.40
2009,06,04,01,33,18.40
2009,06,04,01,34,18.40
2009,06,04,01,35,18.40
2009,06,04,01,36,18.30
2009,06,04,01,37,18.20
2009,06,04,01,38,18.10
2009,06,04,01,39,18.10
2009,06,04,01,40,18.00
2009,06,04,01,41,17.80
2009,06,04,01,42,17.80
2009,06,04,01,43,17.70
2009,06,04,01,44,17.60
2009,06,04,01,45,17.50
2009,06,04,01,46,17.40
2009,06,04,01,47,17.30
2009,06,04,01,48,17.20
2009,06,04,01,49,17.10
2009,06,04,01,50,17.00
2009,06,04,01,51,16.90
2009,06,04,01,52,16.90
2009,06,04,01,53,16.80
2009,06,04,01,54,16.80
2009,06,04,01,55,16.80
2009,06,04,01,56,16.80
2009,06,04,01,57,16.80
2009,06,04,01,58,16.80
2009,06,04,01,59,16.80
2009,06,04,02,00,16.80
2009,06,04,02,01,16.80
2009,06,04,02,02,16.80
2009,06,04,02,03,16.70
2009,06,04,02,04,16.70
2009,06,04,02,05,16.70
2009,06,04,02,06,16.70
2009,06,04,02,07,16.60
2009,06,04,02,08,16.70
2009,06,04,02,09,16.70
2009,06,04,02,10,16.70
2009,06,04,02,11,16.70
2009,06,04,02,12,16.70
2009,06,04,02,13,16.80
2009,06,04,02,14,16.80
2009,06,04,02,15,16.90
2009,06,04,02,16,17.00
2009,06,04,02,17,17.10
2009,06,04,02,18,17.30
2009,06,04,02,19,17.40
2009,06,04,02,20,17.50
2009,06,04,02,21,17.50
2009,06,04,02,22,17.60
2009,06,04,02,23,17.60
2009,06,04,02,24,17.60
2009,06,04,02,25,17.50
2009,06,04,02,26,17.40
2009,06,04,02,27,17.20
2009,06,04,02,28,16.90
2009,06,04,02,29,16.80
2009,06,04,02,30,16.60
2009,06,04,02,31,16.50
2009,06,04,02,32,16.40
2009,06,04,02,33,16.30
2009,06,04,02,34,16.20
2009,06,04,02,35,16.10
2009,06,04,02,36,16.10
2009,06,04,02,37,16.00
2009,06,04,02,38,15.90
2009,06,04,02,39,15.90
2009,06,04,02,40,15.90
2009,06,04,02,41,15.80
2009,06,04,02,42,15.80
2009,06,04,02,43,15.70
2009,06,04,02,44,15.70
2009,06,04,02,45,15.70
2009,06,04,02,46,15.60
2009,06,04,02,47,15.60
2009,06,04,02,48,15.60
2009,06,04,02,49,15.50
2009,06,04,02,50,15.50
2009,06,04,02,51,15.50
2009,06,04,02,52,15.40
2009,06,04,02,53,15.40
2009,06,04,02,54,15.40
2009,06,04,02,55,15.40
2009,06,04,02,56,15.40
2009,06,04,02,57,15.40
2009,06,04,02,58,15.40
2009,06,04,02,59,15.40
2009,06,04,03,00,15.40
2009,06,04,03,01,15.40
2009,06,04,03,02,15.40
2009,06,04,03,03,15.40
2009,06,04,03,04,15.40
2009,06,04,03,05,15.40
2009,06,04,03,06,15.40
2009,06,04,03,07,15.40
2009,06,04,03,08,15.40
2009,06,04,03,09,15.40
2009,06,04,03,10,15.50
2009,06,04,03,11,15.40
2009,06,04,03,12,15.40
2009,06,04,03,13,15.50
2009,06,04,03,14,15.50
2009,06,04,03,15,15.50
2009,06,04,03,16,15.50
2009,06,04,03,17,15.50
2009,06,04,03,18,15.50
2009,06,04,03,19,15.60
2009,06,04,03,20,15.60
2009,06,04,03,21,15.60
2009,06,04,03,22,15.60
2009,06,04,03,23,15.50
2009,06,04,03,24,15.50
2009,06,04,03,25,15.50
2009,06,04,03,26,15.40
2009,06,04,03,27,15.40
2009,06,04,03,28,15.40
2009,06,04,03,29,15.40
2009,06,04,03,30,15.40
2009,06,04,03,31,15.30
2009,06,04,03,32,15.30
2009,06,04,03,33,15.30
2009,06,04,03,34,15.30
2009,06,04,03,35,15.30
2009,06,04,03,36,15.30
2009,06,04,03,37,15.30
2009,06,04,03,38,15.30
2009,06,04,03,39,15.30
2009,06,04,03,40,15.30
2009,06,04,03,41,15.30
2009,06,04,03,42,15.30
2009,06,04,03,43,15.30
2009,06,04,03,44,15.30
2009,06,04,03,45,15.30
2009,06,04,03,46,15.30
2009,06,04,03,47,15.30
2009,06,04,03,48,15.30
2009,06,04,03,49,15.30
2009,06,04,03,50,15.30
2009,06,04,03,51,15.30
2009,06,04,03,52,15.30
2009,06,04,03,53,15.30
2009,06,04,03,54,15.30
2009,06,04,03,55,15.20
2009,06,04,03,56,15.20
2009,06,04,03,57,15.20
2009,06,04,03,58,15.20
2009,06,04,03,59,15.10
2009,06,04,04,00,15.10
2009,06,04,04,01,15.00
2009,06,04,04,02,15.00
2009,06,04,04,03,15.00
2009,06,04,04,04,15.00
2009,06,04,04,05,15.00
2009,06,04,04,06,15.00
2009,06,04,04,07,15.00
2009,06,04,04,08,15.00
2009,06,04,04,09,15.00
2009,06,04,04,10,15.10
2009,06,04,04,11,15.20
2009,06,04,04,12,15.20
2009,06,04,04,13,15.30
2009,06,04,04,14,15.30
2009,06,04,04,15,15.30
2009,06,04,04,16,15.40
2009,06,04,04,17,15.40
2009,06,04,04,18,15.40
2009,06,04,04,19,15.40
2009,06,04,04,20,15.40
2009,06,04,04,21,15.50
2009,06,04,04,22,15.50
2009,06,04,04,23,15.50
2009,06,04,04,24,15.50
2009,06,04,04,25,15.60
2009,06,04,04,26,15.60
2009,06,04,04,27,15.60
2009,06,04,04,28,15.60
2009,06,04,04,29,15.60
2009,06,04,04,30,15.60
2009,06,04,04,31,15.60
2009,06,04,04,32,15.60
2009,06,04,04,33,15.50
2009,06,04,04,34,15.50
2009,06,04,04,35,15.40
2009,06,04,04,36,15.40
2009,06,04,04,37,15.30
2009,06,04,04,38,15.20
2009,06,04,04,39,15.10
2009,06,04,04,40,15.00
2009,06,04,04,41,15.00
2009,06,04,04,42,15.00
2009,06,04,04,43,15.00
2009,06,04,04,44,15.00
2009,06,04,04,45,15.00
2009,06,04,04,46,14.90
2009,06,04,04,47,14.80
2009,06,04,04,48,14.80
2009,06,04,04,49,14.80
2009,06,04,04,50,14.70
2009,06,04,04,51,14.70
2009,06,04,04,52,14.60
2009,06,04,04,53,14.60
2009,06,04,04,54,14.60
2009,06,04,04,55,14.50
2009,06,04,04,56,14.50
2009,06,04,04,57,14.40
2009,06,04,04,58,14.40
2009,06,04,04,59,14.40
2009,06,04,05,00,14.40
2009,06,04,05,01,14.30
2009,06,04,05,02,14.30
2009,06,04,05,03,14.30
2009,06,04,05,04,14.30
2009,06,04,05,05,14.20
2009,06,04,05,06,14.20
2009,06,04,05,07,14.20
2009,06,04,05,08,14.20
2009,06,04,05,09,14.20
2009,06,04,05,10,14.30
2009,06,04,05,11,14.40
2009,06,04,05,12,14.50
2009,06,04,05,13,14.80
2009,06,04,05,14,15.00
2009,06,04,05,15,15.40
2009,06,04,05,16,15.80
2009,06,04,05,17,16.20
2009,06,04,05,18,16.50
2009,06,04,05,19,16.80
2009,06,04,05,20,17.10
2009,06,04,05,21,17.30
2009,06,04,05,22,17.40
2009,06,04,05,23,17.60
2009,06,04,05,24,17.70
2009,06,04,05,25,17.70
2009,06,04,05,26,17.70
2009,06,04,05,27,17.70
2009,06,04,05,28,17.70
2009,06,04,05,29,17.70
2009,06,04,05,30,17.60
2009,06,04,05,31,17.60
2009,06,04,05,32,17.50
2009,06,04,05,33,17.50
2009,06,04,05,34,17.40
2009,06,04,05,35,17.40
2009,06,04,05,36,17.40
2009,06,04,05,37,17.30
2009,06,04,05,38,17.30
2009,06,04,05,39,17.30
2009,06,04,05,40,17.30
2009,06,04,05,41,17.30
2009,06,04,05,42,17.30
2009,06,04,05,43,17.30
2009,06,04,05,44,17.30
2009,06,04,05,45,17.30
2009,06,04,05,46,17.20
2009,06,04,05,47,17.20
2009,06,04,05,48,17.20
2009,06,04,05,49,17.20
2009,06,04,05,50,17.20
2009,06,04,05,51,17.30
2009,06,04,05,52,17.30
2009,06,04,05,53,17.30
2009,06,04,05,54,17.30
2009,06,04,05,55,17.30
2009,06,04,05,56,17.30
2009,06,04,05,57,17.30
2009,06,04,05,58,17.30
2009,06,04,05,59,17.30
2009,06,04,06,00,17.30
2009,06,04,06,01,17.30
2009,06,04,06,02,17.30
2009,06,04,06,03,17.30
2009,06,04,06,04,17.30
2009,06,04,06,05,17.30
2009,06,04,06,06,17.30
2009,06,04,06,07,17.30
2009,06,04,06,08,17.30
2009,06,04,06,09,17.30
2009,06,04,06,10,17.30
2009,06,04,06,11,17.30
2009,06,04,06,12,17.30
2009,06,04,06,13,17.30
2009,06,04,06,14,17.30
2009,06,04,06,15,17.30
2009,06,04,06,16,17.30
2009,06,04,06,17,17.20
2009,06,04,06,18,17.20
2009,06,04,06,19,17.20
2009,06,04,06,20,17.20
2009,06,04,06,21,17.10
2009,06,04,06,22,17.10
2009,06,04,06,23,17.10
2009,06,04,06,24,17.10
2009,06,04,06,25,17.10
2009,06,04,06,26,17.10
2009,06,04,06,27,17.10
2009,06,04,06,28,17.10
2009,06,04,06,29,17.20
2009,06,04,06,30,17.20
2009,06,04,06,31,17.30
2009,06,04,06,32,17.30
2009,06,04,06,33,17.30
2009,06,04,06,34,17.40
2009,06,04,06,35,17.50
2009,06,04,06,36,17.50
2009,06,04,06,37,17.60
2009,06,04,06,38,17.60
2009,06,04,06,39,17.70
2009,06,04,06,40,17.70
2009,06,04,06,41,17.80
2009,06,04,06,42,17.90
2009,06,04,06,43,17.90
2009,06,04,06,44,18.00
2009,06,04,06,45,18.00
2009,06,04,06,46,18.00
2009,06,04,06,47,18.10
2009,06,04,06,48,18.10
2009,06,04,06,49,18.10
2009,06,04,06,50,18.10
2009,06,04,06,51,18.10
2009,06,04,06,52,18.10
2009,06,04,06,53,18.10
2009,06,04,06,54,18.10
2009,06,04,06,55,18.10
2009,06,04,06,56,18.10
2009,06,04,06,57,18.20
2009,06,04,06,58,18.20
2009,06,04,06,59,18.20
2009,06,04,07,00,18.20
2009,06,04,07,01,18.20
2009,06,04,07,02,18.20
2009,06,04,07,03,18.20
2009,06,04,07,04,18.20
2009,06,04,07,05,18.20
2009,06,04,07,06,18.20
2009,06,04,07,07,18.20
2009,06,04,07,08,18.20
2009,06,04,07,09,18.20
2009,06,04,07,10,18.30
2009,06,04,07,11,18.30
2009,06,04,07,12,18.30
2009,06,04,07,13,18.30
2009,06,04,07,14,18.30
2009,06,04,07,15,18.40
2009,06,04,07,16,18.40
2009,06,04,07,17,18.40
2009,06,04,07,18,18.40
2009,06,04,07,19,18.50
2009,06,04,07,20,18.60
2009,06,04,07,21,18.60
2009,06,04,07,22,18.70
2009,06,04,07,23,18.80
2009,06,04,07,24,18.80
2009,06,04,07,25,18.80
2009,06,04,07,26,18.90
2009,06,04,07,27,19.00
2009,06,04,07,28,19.00
2009,06,04,07,29,19.10
2009,06,04,07,30,19.20
2009,06,04,07,31,19.20
2009,06,04,07,32,19.30
2009,06,04,07,33,19.30
2009,06,04,07,34,19.40
2009,06,04,07,35,19.40
2009,06,04,07,36,19.40
2009,06,04,07,37,19.40
2009,06,04,07,38,19.40
2009,06,04,07,39,19.40
2009,06,04,07,40,19.40
2009,06,04,07,41,19.50
2009,06,04,07,42,19.50
2009,06,04,07,43,19.60
2009,06,04,07,44,19.60
2009,06,04,07,45,19.70
2009,06,04,07,46,19.70
2009,06,04,07,47,19.80
2009,06,04,07,48,19.90
2009,06,04,07,49,20.00
2009,06,04,07,50,20.00
2009,06,04,07,51,20.10
2009,06,04,07,52,20.20
2009,06,04,07,53,20.30
2009,06,04,07,54,20.40
2009,06,04,07,55,20.40
2009,06,04,07,56,20.50
2009,06,04,07,57,20.60
2009,06,04,07,58,20.70
2009,06,04,07,59,20.70
2009,06,04,08,00,20.80
2009,06,04,08,01,20.90
2009,06,04,08,02,21.00
2009,06,04,08,03,21.10
2009,06,04,08,04,21.20
2009,06,04,08,05,21.30
2009,06,04,08,06,21.40
2009,06,04,08,07,21.50
2009,06,04,08,08,21.60
2009,06,04,08,09,21.80
2009,06,04,08,10,21.80
2009,06,04,08,11,21.90
2009,06,04,08,12,22.10
2009,06,04,08,13,22.20
2009,06,04,08,14,22.30
2009,06,04,08,15,22.40
2009,06,04,08,16,22.50
2009,06,04,08,17,22.60
2009,06,04,08,18,22.70
2009,06,04,08,19,22.70
2009,06,04,08,20,22.80
2009,06,04,08,21,22.90
2009,06,04,08,22,23.00
2009,06,04,08,23,23.00
2009,06,04,08,24,23.20
2009,06,04,08,25,23.30
2009,06,04,08,26,23.30
2009,06,04,08,27,23.40
2009,06,04,08,28,23.50
2009,06,04,08,29,23.50
2009,06,04,08,30,23.60
2009,06,04,08,31,23.60
2009,06,04,08,32,23.60
2009,06,04,08,33,23.60
2009,06,04,08,34,23.70
2009,06,04,08,35,23.70
2009,06,04,08,36,23.60
2009,06,04,08,37,23.60
2009,06,04,08,38,23.60
2009,06,04,08,39,23.50
2009,06,04,08,40,23.50
2009,06,04,08,41,23.40
2009,06,04,08,42,23.40
2009,06,04,08,43,23.40
2009,06,04,08,44,23.40
2009,06,04,08,45,23.40
2009,06,04,08,46,23.40
2009,06,04,08,47,23.40
2009,06,04,08,48,23.40
2009,06,04,08,49,23.40
2009,06,04,08,50,23.50
2009,06,04,08,51,23.50
2009,06,04,08,52,23.50
2009,06,04,08,53,23.60
2009,06,04,08,54,23.60
2009,06,04,08,55,23.70
2009,06,04,08,56,23.70
2009,06,04,08,57,23.70
2009,06,04,08,58,23.80
2009,06,04,08,59,23.80
2009,06,04,09,00,23.80
2009,06,04,09,01,23.90
2009,06,04,09,02,24.00
2009,06,04,09,03,24.00
2009,06,04,09,04,24.10
2009,06,04,09,05,24.20
2009,06,04,09,06,24.20
2009,06,04,09,07,24.30
2009,06,04,09,08,24.40
2009,06,04,09,09,24.50
2009,06,04,09,10,24.60
2009,06,04,09,11,24.70
2009,06,04,09,12,24.80
2009,06,04,09,13,24.90
2009,06,04,09,14,25.00
2009,06,04,09,15,25.10
2009,06,04,09,16,25.10
2009,06,04,09,17,25.20
2009,06,04,09,18,25.20
2009,06,04,09,19,25.10
2009,06,04,09,20,25.10
2009,06,04,09,21,25.10
2009,06,04,09,22,25.10
2009,06,04,09,23,25.20
2009,06,04,09,24,25.20
2009,06,04,09,25,25.20
2009,06,04,09,26,25.20
2009,06,04,09,27,25.20
2009,06,04,09,28,25.20
2009,06,04,09,29,25.10
2009,06,04,09,30,25.00
2009,06,04,09,31,24.90
2009,06,04,09,32,24.80
2009,06,04,09,33,24.80
2009,06,04,09,34,24.80
2009,06,04,09,35,24.70
2009,06,04,09,36,24.70
2009,06,04,09,37,24.70
2009,06,04,09,38,24.70
2009,06,04,09,39,24.70
2009,06,04,09,40,24.70
2009,06,04,09,41,24.80
2009,06,04,09,42,24.80
2009,06,04,09,43,24.80
2009,06,04,09,44,24.80
2009,06,04,09,45,24.80
2009,06,04,09,46,24.90
2009,06,04,09,47,24.90
2009,06,04,09,48,24.90
2009,06,04,09,49,24.80
2009,06,04,09,50,24.80
2009,06,04,09,51,24.70
2009,06,04,09,52,24.60
2009,06,04,09,53,24.60
2009,06,04,09,54,24.60
2009,06,04,09,55,24.50
2009,06,04,09,56,24.50
2009,06,04,09,57,24.40
2009,06,04,09,58,24.40
2009,06,04,09,59,24.40
2009,06,04,10,00,24.40
2009,06,04,10,01,24.40
2009,06,04,10,02,24.40
2009,06,04,10,03,24.30
2009,06,04,10,04,24.30
2009,06,04,10,05,24.30
2009,06,04,10,06,24.30
2009,06,04,10,07,24.40
2009,06,04,10,08,24.40
2009,06,04,10,09,24.50
2009,06,04,10,10,24.60
2009,06,04,10,11,24.60
2009,06,04,10,12,24.60
2009,06,04,10,13,24.70
2009,06,04,10,14,24.80
2009,06,04,10,15,24.80
2009,06,04,10,16,24.80
2009,06,04,10,17,24.80
2009,06,04,10,18,24.80
2009,06,04,10,19,24.80
2009,06,04,10,20,24.80
2009,06,04,10,21,24.80
2009,06,04,10,22,24.80
2009,06,04,10,23,24.80
2009,06,04,10,24,24.80
2009,06,04,10,25,24.70
2009,06,04,10,26,24.70
2009,06,04,10,27,24.70
2009,06,04,10,28,24.70
2009,06,04,10,29,24.80
2009,06,04,10,30,24.80
2009,06,04,10,31,24.90
2009,06,04,10,32,24.90
2009,06,04,10,33,24.90
2009,06,04,10,34,24.80
2009,06,04,10,35,24.80
2009,06,04,10,36,24.70
2009,06,04,10,37,24.70
2009,06,04,10,38,24.70
2009,06,04,10,39,24.70
2009,06,04,10,40,24.80
2009,06,04,10,41,24.80
2009,06,04,10,42,24.80
2009,06,04,10,43,24.70
2009,06,04,10,44,24.70
2009,06,04,10,45,24.70
2009,06,04,10,46,24.80
2009,06,04,10,47,24.80
2009,06,04,10,48,24.80
2009,06,04,10,49,24.80
2009,06,04,10,50,24.80
2009,06,04,10,51,24.80
2009,06,04,10,52,24.80
2009,06,04,10,53,24.80
2009,06,04,10,54,24.80
2009,06,04,10,55,24.80
2009,06,04,10,56,24.80
2009,06,04,10,57,24.80
2009,06,04,10,58,24.90
2009,06,04,10,59,25.00
2009,06,04,11,00,25.00
2009,06,04,11,01,25.10
2009,06,04,11,02,25.10
2009,06,04,11,03,25.10
2009,06,04,11,04,25.10
2009,06,04,11,05,25.10
2009,06,04,11,06,25.10
2009,06,04,11,07,25.20
2009,06,04,11,08,25.20
2009,06,04,11,09,25.20
2009,06,04,11,10,25.30
2009,06,04,11,11,25.40
2009,06,04,11,12,25.40
2009,06,04,11,13,25.40
2009,06,04,11,14,25.50
2009,06,04,11,15,25.50
2009,06,04,11,16,25.60
2009,06,04,11,17,25.60
2009,06,04,11,18,25.70
2009,06,04,11,19,25.70
2009,06,04,11,20,25.80
2009,06,04,11,21,25.90
2009,06,04,11,22,25.90
2009,06,04,11,23,26.00
2009,06,04,11,24,26.00
2009,06,04,11,25,26.10
2009,06,04,11,26,26.20
2009,06,04,11,27,26.20
2009,06,04,11,28,26.30
2009,06,04,11,29,26.30
2009,06,04,11,30,26.40
2009,06,04,11,31,26.50
2009,06,04,11,32,26.50
2009,06,04,11,33,26.60
2009,06,04,11,34,26.50
2009,06,04,11,35,26.50
2009,06,04,11,36,26.40
2009,06,04,11,37,26.40
2009,06,04,11,38,26.40
2009,06,04,11,39,26.30
2009,06,04,11,40,26.30
2009,06,04,11,41,26.40
2009,06,04,11,42,26.50
2009,06,04,11,43,26.60
2009,06,04,11,44,26.60
2009,06,04,11,45,26.60
2009,06,04,11,46,26.40
2009,06,04,11,47,26.30
2009,06,04,11,48,26.20
2009,06,04,11,49,26.10
2009,06,04,11,50,26.10
2009,06,04,11,51,26.00
2009,06,04,11,52,26.10
2009,06,04,11,53,26.20
2009,06,04,11,54,26.30
2009,06,04,11,55,26.40
2009,06,04,11,56,26.50
2009,06,04,11,57,26.50
2009,06,04,11,58,26.60
2009,06,04,11,59,26.60
2009,06,04,12,00,26.60
2009,06,04,12,01,26.60
2009,06,04,12,02,26.70
2009,06,04,12,03,26.70
2009,06,04,12,04,26.80
2009,06,04,12,05,26.80
2009,06,04,12,06,26.90
2009,06,04,12,07,27.00
2009,06,04,12,08,27.00
2009,06,04,12,09,27.00
2009,06,04,12,10,27.00
2009,06,04,12,11,27.10
2009,06,04,12,12,27.10
2009,06,04,12,13,27.10
2009,06,04,12,14,27.10
2009,06,04,12,15,27.00
2009,06,04,12,16,27.00
2009,06,04,12,17,26.90
2009,06,04,12,18,26.90
2009,06,04,12,19,26.90
2009,06,04,12,20,26.80
2009,06,04,12,21,26.80
2009,06,04,12,22,26.80
2009,06,04,12,23,26.80
2009,06,04,12,24,26.80
2009,06,04,12,25,26.90
2009,06,04,12,26,27.00
2009,06,04,12,27,27.10
2009,06,04,12,28,27.10
2009,06,04,12,29,27.10
2009,06,04,12,30,27.10
2009,06,04,12,31,27.10
2009,06,04,12,32,27.10
2009,06,04,12,33,27.20
2009,06,04,12,34,27.10
2009,06,04,12,35,27.10
2009,06,04,12,36,27.00
2009,06,04,12,37,27.00
2009,06,04,12,38,27.00
2009,06,04,12,39,27.10
2009,06,04,12,40,27.20
2009,06,04,12,41,27.30
2009,06,04,12,42,27.40
2009,06,04,12,43,27.40
2009,06,04,12,44,27.30
2009,06,04,12,45,27.40
2009,06,04,12,46,27.40
2009,06,04,12,47,27.40
2009,06,04,12,48,27.40
2009,06,04,12,49,27.50
2009,06,04,12,50,27.60
2009,06,04,12,51,27.60
2009,06,04,12,52,27.50
2009,06,04,12,53,27.50
2009,06,04,12,54,27.60
2009,06,04,12,55,27.70
2009,06,04,12,56,27.70
2009,06,04,12,57,27.60
2009,06,04,12,58,27.60
2009,06,04,12,59,27.60
2009,06,04,13,00,27.60
2009,06,04,13,01,27.70
2009,06,04,13,02,27.80
2009,06,04,13,03,27.80
2009,06,04,13,04,27.90
2009,06,04,13,05,27.90
2009,06,04,13,06,27.90
2009,06,04,13,07,27.90
2009,06,04,13,08,27.90
2009,06,04,13,09,27.80
2009,06,04,13,10,27.90
2009,06,04,13,11,27.90
2009,06,04,13,12,27.90
2009,06,04,13,13,27.90
2009,06,04,13,14,27.90
2009,06,04,13,15,27.80
2009,06,04,13,16,27.80
2009,06,04,13,17,27.80
2009,06,04,13,18,27.80
2009,06,04,13,19,27.90
2009,06,04,13,20,28.00
2009,06,04,13,21,28.10
2009,06,04,13,22,28.10
2009,06,04,13,23,28.20
2009,06,04,13,24,28.30
2009,06,04,13,25,28.30
2009,06,04,13,26,28.30
2009,06,04,13,27,28.30
2009,06,04,13,28,28.30
2009,06,04,13,29,28.30
2009,06,04,13,30,28.40
2009,06,04,13,31,28.40
2009,06,04,13,32,28.60
2009,06,04,13,33,28.70
2009,06,04,13,34,28.80
2009,06,04,13,35,28.90
2009,06,04,13,36,28.90
2009,06,04,13,37,28.90
2009,06,04,13,38,28.80
2009,06,04,13,39,28.70
2009,06,04,13,40,28.70
2009,06,04,13,41,28.80
2009,06,04,13,42,28.70
2009,06,04,13,43,28.70
2009,06,04,13,44,28.60
2009,06,04,13,45,28.50
2009,06,04,13,46,28.30
2009,06,04,13,47,28.20
2009,06,04,13,48,28.10
2009,06,04,13,49,28.10
2009,06,04,13,50,28.10
2009,06,04,13,51,28.00
2009,06,04,13,52,27.90
2009,06,04,13,53,27.90
2009,06,04,13,54,27.90
2009,06,04,13,55,27.90
2009,06,04,13,56,27.90
2009,06,04,13,57,27.90
2009,06,04,13,58,27.90
2009,06,04,13,59,27.90
2009,06,04,14,00,28.00
2009,06,04,14,01,28.00
2009,06,04,14,02,28.10
2009,06,04,14,03,28.10
2009,06,04,14,04,28.10
2009,06,04,14,05,28.10
2009,06,04,14,06,28.20
2009,06,04,14,07,28.20
2009,06,04,14,08,28.30
2009,06,04,14,09,28.40
2009,06,04,14,10,28.50
2009,06,04,14,11,28.60
2009,06,04,14,12,28.80
2009,06,04,14,13,28.90
2009,06,04,14,14,29.00
2009,06,04,14,15,29.10
2009,06,04,14,16,29.10
2009,06,04,14,17,28.90
2009,06,04,14,18,28.90
2009,06,04,14,19,28.80
2009,06,04,14,20,28.80
2009,06,04,14,21,28.80
2009,06,04,14,22,28.80
2009,06,04,14,23,28.90
2009,06,04,14,24,29.00
2009,06,04,14,25,29.10
2009,06,04,14,26,29.10
2009,06,04,14,27,29.10
2009,06,04,14,28,29.20
2009,06,04,14,29,29.10
2009,06,04,14,30,29.00
2009,06,04,14,31,28.90
2009,06,04,14,32,28.80
2009,06,04,14,33,28.70
2009,06,04,14,34,28.60
2009,06,04,14,35,28.50
2009,06,04,14,36,28.60
2009,06,04,14,37,28.70
2009,06,04,14,38,28.80
2009,06,04,14,39,28.90
2009,06,04,14,40,29.00
2009,06,04,14,41,29.00
2009,06,04,14,42,29.00
2009,06,04,14,43,29.00
2009,06,04,14,44,29.00
2009,06,04,14,45,29.00
2009,06,04,14,46,29.10
2009,06,04,14,47,29.10
2009,06,04,14,48,29.10
2009,06,04,14,49,29.10
2009,06,04,14,50,29.10
2009,06,04,14,51,29.00
2009,06,04,14,52,28.90
2009,06,04,14,53,28.90
2009,06,04,14,54,28.90
2009,06,04,14,55,28.90
2009,06,04,14,56,28.80
2009,06,04,14,57,28.80
2009,06,04,14,58,28.80
2009,06,04,14,59,28.80
2009,06,04,15,00,28.80
2009,06,04,15,01,28.80
2009,06,04,15,02,28.80
2009,06,04,15,03,28.80
2009,06,04,15,04,28.80
2009,06,04,15,05,28.90
2009,06,04,15,06,28.90
2009,06,04,15,07,29.00
2009,06,04,15,08,29.00
2009,06,04,15,09,29.10
2009,06,04,15,10,29.10
2009,06,04,15,11,29.10
2009,06,04,15,12,29.20
2009,06,04,15,13,29.20
2009,06,04,15,14,29.20
2009,06,04,15,15,29.30
2009,06,04,15,16,29.40
2009,06,04,15,17,29.50
2009,06,04,15,18,29.60
2009,06,04,15,19,29.80
2009,06,04,15,20,29.90
2009,06,04,15,21,30.00
2009,06,04,15,22,30.10
2009,06,04,15,23,30.10
2009,06,04,15,24,30.10
2009,06,04,15,25,30.10
2009,06,04,15,26,30.10
2009,06,04,15,27,30.10
2009,06,04,15,28,30.00
2009,06,04,15,29,30.00
2009,06,04,15,30,30.00
2009,06,04,15,31,30.00
2009,06,04,15,32,30.00
2009,06,04,15,33,29.90
2009,06,04,15,34,29.90
2009,06,04,15,35,29.90
2009,06,04,15,36,29.80
2009,06,04,15,37,29.80
2009,06,04,15,38,29.80
2009,06,04,15,39,29.70
2009,06,04,15,40,29.60
2009,06,04,15,41,29.60
2009,06,04,15,42,29.60
2009,06,04,15,43,29.60
2009,06,04,15,44,29.60
2009,06,04,15,45,29.60
2009,06,04,15,46,29.60
2009,06,04,15,47,29.60
2009,06,04,15,48,29.60
2009,06,04,15,49,29.70
2009,06,04,15,50,29.70
2009,06,04,15,51,29.70
2009,06,04,15,52,29.70
2009,06,04,15,53,29.80
2009,06,04,15,54,29.80
2009,06,04,15,55,29.80
2009,06,04,15,56,29.90
2009,06,04,15,57,30.00
2009,06,04,15,58,30.10
2009,06,04,15,59,30.10
2009,06,04,16,00,30.10
2009,06,04,16,01,30.20
2009,06,04,16,02,30.20
2009,06,04,16,03,30.30
2009,06,04,16,04,30.40
2009,06,04,16,05,30.40
2009,06,04,16,06,30.40
2009,06,04,16,07,30.50
2009,06,04,16,08,30.50
2009,06,04,16,09,30.50
2009,06,04,16,10,30.60
2009,06,04,16,11,30.60
2009,06,04,16,12,30.60
2009,06,04,16,13,30.70
2009,06,04,16,14,30.70
2009,06,04,16,15,30.70
2009,06,04,16,16,30.60
2009,06,04,16,17,30.60
2009,06,04,16,18,30.60
2009,06,04,16,19,30.60
2009,06,04,16,20,30.50
2009,06,04,16,21,30.50
2009,06,04,16,22,30.50
2009,06,04,16,23,30.50
2009,06,04,16,24,30.40
2009,06,04,16,25,30.40
2009,06,04,16,26,30.30
2009,06,04,16,27,30.30
2009,06,04,16,28,30.30
2009,06,04,16,29,30.30
2009,06,04,16,30,30.30
2009,06,04,16,31,30.30
2009,06,04,16,32,30.30
2009,06,04,16,33,30.40
2009,06,04,16,34,30.40
2009,06,04,16,35,30.50
2009,06,04,16,36,30.60
2009,06,04,16,37,30.60
2009,06,04,16,38,30.50
2009,06,04,16,39,30.40
2009,06,04,16,40,30.30
2009,06,04,16,41,30.20
2009,06,04,16,42,30.20
2009,06,04,16,43,30.20
2009,06,04,16,44,30.30
2009,06,04,16,45,30.30
2009,06,04,16,46,30.40
2009,06,04,16,47,30.40
2009,06,04,16,48,30.50
2009,06,04,16,49,30.60
2009,06,04,16,50,30.60
2009,06,04,16,51,30.70
2009,06,04,16,52,30.80
2009,06,04,16,53,30.80
2009,06,04,16,54,30.80
2009,06,04,16,55,30.80
2009,06,04,16,56,30.70
2009,06,04,16,57,30.70
2009,06,04,16,58,30.60
2009,06,04,16,59,30.50
2009,06,04,17,00,30.40
2009,06,04,17,01,30.30
2009,06,04,17,02,30.30
2009,06,04,17,03,30.30
2009,06,04,17,04,30.30
2009,06,04,17,05,30.30
2009,06,04,17,06,30.20
2009,06,04,17,07,30.20
2009,06,04,17,08,30.20
2009,06,04,17,09,30.20
2009,06,04,17,10,30.20
2009,06,04,17,11,30.10
2009,06,04,17,12,30.10
2009,06,04,17,13,30.00
2009,06,04,17,14,30.00
2009,06,04,17,15,30.10
2009,06,04,17,16,30.10
2009,06,04,17,17,30.10
2009,06,04,17,18,30.20
2009,06,04,17,19,30.20